Notices

What's New in latest Release from April 7th, 2021:

- Updated Glossary, including Speed of Maximum Gust, and Total Hourly Precipitation

- Updated national and regional climate services offices contacts and prices information

- Addition of station inventory lists for 1981-2010, 1971-2000, and 1961-1990 Normals.

Please note that as of June 10, 2021 UTC dates are available for all years 2004-present, and DBA is working on populating the remaining years (2003 to 1953).

If you haven't already, please take our survey and provide feedback about our website: https://eccc.sondage-survey.ca/f/LanguageSelection.aspx?s=442ca660-fcf1-47c0-95a9-59707d6fd709

Hourly Data Report for April 18, 2021

KUGAARUK CLIMATE
NUNAVUT
Current Station Operator: ECCC - MSC

68°32'15.060" N
89°47'47.020" W
15.80 m
2303094
71407
NBB

Download Data

Hourly Data (April 2021)
Hourly Data Report for April 18, 2021
TIME
LST
Temp Definition
°C
Dew Point Definition
°C
Rel Hum Definition
%
Precip. Amount Definition
mm

Wind Dir Definition
10's deg

Wind Spd Definition
km/h
Visibility Definition
km
Stn Press Definition
kPa
Hmdx Definition


Wind Chill Definition


Weather Definition


00:00 -16.7 -19.4 80 0.0 35 27   101.61   -28 LegendNANA
01:00 -16.9 -19.5 81 0.0 34 26   101.64   -28 LegendNANA
02:00 -17.5 -20.1 80 0.0 35 18   101.74   -27 LegendNANA
03:00 -17.9 -20.4 80 0.0 25 4   101.78   -21 LegendNANA
04:00 -18.2 -20.9 79 0.0 27 10   101.85   -25 LegendNANA
05:00 -18.2 -20.9 79 0.0 34 8   101.87   -24 LegendNANA
06:00 -18.0 -21.0 78 0.0 20 4   101.89   -21 LegendNANA
07:00 -18.0 -20.9 78 0.0 23 11   101.90   -25 LegendNANA
08:00 -16.5 -20.5 71 0.0 27 7   101.89   -22 LegendNANA
09:00 -15.9 -19.7 73 0.3 28 9   101.91   -22 LegendNANA
10:00 -15.5 -19.9 69 0.0 28 7   101.93   -20 LegendNANA
11:00 -14.9 -19.2 70 0.0 35 8   101.95   -20 LegendNANA
12:00 -14.5 -18.9 69 0.0 32 7   101.94   -19 LegendNANA
13:00 -13.9 -17.9 72 0.0 32 14   101.94   -21 LegendNANA
14:00 -13.8 -17.4 74 0.0 32 15   101.98   -21 LegendNANA
15:00 -13.7 -17.8 71 0.0 34 13   102.01   -21 LegendNANA
16:00 -13.8 -17.2 75 0.0 34 6   102.03   -18 LegendNANA
17:00 -14.0 -17.0 78 0.0 34 13   102.04   -21 LegendNANA
18:00 -13.9 -16.7 80 0.0 34 12   102.07   -21 LegendNANA
19:00 -14.2 -16.7 81 0.0 34 11   102.09   -21 LegendNANA
20:00 -14.5 -16.9 82 0.0 32 10   102.14   -21 LegendNANA
21:00 -14.4 -16.8 82 0.0 34 7   102.14   -19 LegendNANA
22:00 -14.7 -16.8 84 0.0 34 8   102.13   -20 LegendNANA
23:00 -14.9 -17.1 83 0.0 34 9   102.16   -21 LegendNANA

Notes on Data Quality.

Legend

  • E = Estimated
  • M = Missing
  • NA = Not Available*
  • [empty] = Indicates an unobserved value
Date modified: